Date String (YYYY-MM-DD hh:mm:ss) UTC,Instrument flags,absolute air pressure of the measurement (hPa),sample flow rate (lpm),inlet stack bypass flow (lpm),air temperature of the measurement (°C),ambient temperature measured by the external sensor (°C),aerosol sample conditioner tube jacket temperature (°C),OPC LED temperature (°C),internal box temperature (°C),relative humidity of the measurement (%),span deviation,mass concentration of particles derived from Lorenz-Mie calculation of OPC scattering (μg/m³),mass concentration of particles derived from Lorenz-Mie calculation of OPC scattering (μg/m³),mass concentration of particles derived from Lorenz-Mie calculation of OPC scattering (μg/m³)
DateTimeUTC,F1_M11,P_M11,Q1_M11,Q2_M11,T1_M11,T2_M11,T3_M11,T4_M11,T5_M11,U1_M11,ZSPAN_M11,X0_M11,X2_M11,X1_M11
2023-10-13 23:00:00,SystemResetWarning,0833.2,5.00,000.00,029.6,028.3,000.0,038.0,031.1,9.8,0000.0,0008.07,0001.85,0001.30
2023-10-13 23:01:00,SystemResetWarning,0833.2,5.00,000.00,029.6,028.3,000.0,038.0,031.1,9.8,0000.0,0006.71,0001.86,0001.31
2023-10-13 23:02:00,SystemResetWarning,0833.2,5.01,000.00,029.6,028.3,000.0,038.0,031.1,9.8,0000.0,0006.41,0001.90,0001.32
2023-10-13 23:03:00,SystemResetWarning,0833.3,5.00,000.00,029.6,028.3,000.0,038.0,031.1,9.8,0000.0,0006.35,0001.87,0001.32
2023-10-13 23:04:00,SystemResetWarning,0833.2,5.01,000.00,029.6,028.3,000.0,038.0,031.1,9.9,0000.0,0006.31,0001.86,0001.32
2023-10-13 23:05:00,SystemResetWarning,0833.3,4.99,000.00,029.6,028.3,000.0,038.0,031.1,10.0,0000.0,0006.22,0001.87,0001.33
2023-10-13 23:06:00,SystemResetWarning,0833.3,4.99,000.00,029.6,028.3,000.0,038.0,031.1,9.8,0000.0,0006.37,0001.89,0001.32
2023-10-13 23:07:00,SystemResetWarning,0833.2,5.00,000.00,029.6,028.3,000.0,038.1,031.2,9.8,0000.0,0006.48,0001.90,0001.33
2023-10-13 23:08:00,SystemResetWarning,0833.3,5.00,000.00,029.6,028.3,000.0,038.0,031.1,9.8,0000.0,0007.23,0001.94,0001.32
2023-10-13 23:09:00,SystemResetWarning,0833.4,5.01,000.00,029.6,028.3,000.0,038.1,031.2,9.8,0000.0,0007.85,0001.94,0001.32
2023-10-13 23:10:00,SystemResetWarning,0833.4,4.99,000.00,029.6,028.3,000.0,038.1,031.2,9.8,0000.0,0007.46,0001.93,0001.31
2023-10-13 23:11:00,SystemResetWarning,0833.4,4.99,000.00,029.6,028.3,000.0,038.1,031.1,9.8,0000.0,0006.58,0001.97,0001.30
2023-10-13 23:12:00,SystemResetWarning,0833.4,5.01,000.00,029.6,028.3,000.0,038.1,031.1,9.9,0000.0,0006.14,0001.99,0001.27
2023-10-13 23:13:00,SystemResetWarning,0833.4,5.01,000.00,029.6,028.3,000.0,038.1,031.1,9.8,0000.0,0006.43,0001.97,0001.26
2023-10-13 23:14:00,SystemResetWarning,0833.4,4.99,000.00,029.6,028.3,000.0,038.1,031.2,9.8,0000.0,0006.44,0001.95,0001.26
2023-10-13 23:15:00,SystemResetWarning,0833.4,4.99,000.00,029.6,028.3,000.0,038.1,031.2,9.9,0000.0,0006.43,0001.96,0001.26
2023-10-13 23:16:00,SystemResetWarning,0833.4,5.01,000.00,029.6,028.4,000.0,038.1,031.2,9.9,0000.0,0006.48,0001.95,0001.26
2023-10-13 23:17:00,SystemResetWarning,0833.4,5.01,000.00,029.6,028.4,000.0,038.1,031.2,9.8,0000.0,0006.35,0001.95,0001.28
2023-10-13 23:18:00,SystemResetWarning,0833.4,5.01,000.00,029.6,028.4,000.0,038.1,031.2,9.8,0000.0,0006.18,0001.94,0001.30
2023-10-13 23:19:00,SystemResetWarning,0833.4,4.99,000.00,029.6,028.4,000.0,038.1,031.2,9.8,0000.0,0006.71,0001.90,0001.30
2023-10-13 23:20:00,SystemResetWarning,0833.4,5.00,000.00,029.7,028.4,000.0,038.1,031.2,9.9,0000.0,0004.91,0001.87,0001.31
2023-10-13 23:21:00,SystemResetWarning,0833.5,5.01,000.00,029.7,028.4,000.0,038.1,031.2,9.9,0000.0,0004.86,0001.88,0001.33
2023-10-13 23:22:00,SystemResetWarning,0833.4,5.01,000.00,029.7,028.4,000.0,038.1,031.2,9.9,0000.0,0005.06,0001.83,0001.34
2023-10-13 23:23:00,SystemResetWarning,0833.5,5.01,000.00,029.7,028.4,000.0,038.1,031.2,9.9,0000.0,0005.44,0001.82,0001.36
2023-10-13 23:24:00,SystemResetWarning,0833.6,4.99,000.00,029.7,028.4,000.0,038.1,031.3,9.9,0000.0,0004.93,0001.82,0001.37
2023-10-13 23:25:00,SystemResetWarning,0833.6,4.99,000.00,029.7,028.4,000.0,038.1,031.3,9.9,0000.0,0004.89,0001.86,0001.36
2023-10-13 23:26:00,SystemResetWarning,0833.6,5.01,000.00,029.7,028.4,000.0,038.1,031.3,9.9,0000.0,0006.07,0001.89,0001.35
2023-10-13 23:27:00,SystemResetWarning,0833.7,5.01,000.00,029.7,028.4,000.0,038.1,031.3,9.9,0000.0,0006.10,0001.90,0001.36
2023-10-13 23:28:00,SystemResetWarning,0833.7,5.00,000.00,029.7,028.5,000.0,038.1,031.3,10.0,0000.0,0006.32,0001.87,0001.36
2023-10-13 23:29:00,SystemResetWarning,0833.7,4.99,000.00,029.7,028.5,000.0,038.2,031.3,9.9,0000.0,0007.10,0001.88,0001.35
2023-10-13 23:30:00,SystemResetWarning,0833.8,5.01,000.00,029.7,028.5,000.0,038.2,031.3,10.0,0000.0,0006.32,0001.88,0001.35
2023-10-13 23:31:00,SystemResetWarning,0833.7,5.00,000.00,029.7,028.5,000.0,038.2,031.3,9.9,0000.0,0006.97,0001.92,0001.34
2023-10-13 23:32:00,SystemResetWarning,0833.7,5.00,000.00,029.7,028.5,000.0,038.2,031.3,10.0,0000.0,0007.51,0001.98,0001.34
2023-10-13 23:33:00,SystemResetWarning,0833.7,4.99,000.00,029.7,028.5,000.0,038.2,031.3,10.0,0000.0,0008.02,0002.05,0001.35
2023-10-13 23:34:00,SystemResetWarning,0833.7,5.00,000.00,029.7,028.5,000.0,038.2,031.3,10.0,0000.0,0007.73,0002.03,0001.35
2023-10-13 23:35:00,SystemResetWarning,0833.7,5.02,000.00,029.7,028.5,000.0,038.2,031.3,10.0,0000.0,0007.68,0002.02,0001.36
2023-10-13 23:36:00,SystemResetWarning,0833.7,4.99,000.00,029.7,028.5,000.0,038.2,031.3,10.0,0000.0,0007.66,0002.02,0001.38
2023-10-13 23:37:00,SystemResetWarning,0833.7,4.99,000.00,029.7,028.5,000.0,038.2,031.3,10.0,0000.0,0006.91,0001.98,0001.40
2023-10-13 23:38:00,SystemResetWarning,0833.8,5.02,000.00,029.7,028.5,000.0,038.2,031.3,10.0,0000.0,0006.54,0001.94,0001.39
2023-10-13 23:39:00,SystemResetWarning,0833.7,5.00,000.00,029.8,028.5,000.0,038.2,031.3,10.0,0000.0,0006.47,0001.92,0001.39
2023-10-13 23:40:00,SystemResetWarning,0833.7,4.99,000.00,029.8,028.5,000.0,038.2,031.3,10.0,0000.0,0005.63,0001.94,0001.39
2023-10-13 23:41:00,SystemResetWarning,0833.7,4.99,000.00,029.8,028.5,000.0,038.2,031.3,9.9,0000.0,0005.46,0001.94,0001.38
2023-10-13 23:42:00,SystemResetWarning,0833.7,5.00,000.00,029.8,028.5,000.0,038.2,031.3,9.9,0000.0,0005.26,0001.98,0001.39
2023-10-13 23:43:00,SystemResetWarning,0833.7,5.00,000.00,029.8,028.5,000.0,038.2,031.3,9.9,0000.0,0005.13,0001.91,0001.39
2023-10-13 23:44:00,SystemResetWarning,0833.7,5.01,000.00,029.8,028.5,000.0,038.2,031.4,10.0,0000.0,0003.95,0001.81,0001.39
2023-10-13 23:45:00,SystemResetWarning,0833.8,5.00,000.00,029.8,028.5,000.0,038.2,031.3,10.0,0000.0,0003.79,0001.81,0001.39
2023-10-13 23:46:00,SystemResetWarning,0833.8,5.00,000.00,029.8,028.5,000.0,038.2,031.3,10.1,0000.0,0003.69,0001.80,0001.39
2023-10-13 23:47:00,SystemResetWarning,0833.8,4.98,000.00,029.8,028.5,000.0,038.2,031.3,10.1,0000.0,0005.27,0001.83,0001.38
2023-10-13 23:48:00,SystemResetWarning,0833.8,5.00,000.00,029.8,028.5,000.0,038.3,031.4,10.1,0000.0,0005.65,0001.82,0001.37
2023-10-13 23:49:00,SystemResetWarning,0833.8,5.02,000.00,029.8,028.5,000.0,038.3,031.4,10.1,0000.0,0005.90,0001.85,0001.37
2023-10-13 23:50:00,SystemResetWarning,0833.8,4.98,000.00,029.8,028.6,000.0,038.3,031.4,10.1,0000.0,0006.00,0001.88,0001.37
2023-10-13 23:51:00,SystemResetWarning,0833.8,4.99,000.00,029.8,028.6,000.0,038.3,031.4,10.1,0000.0,0006.02,0001.86,0001.36
2023-10-13 23:52:00,SystemResetWarning,0833.8,5.01,000.00,029.8,028.6,000.0,038.3,031.4,10.0,0000.0,0006.18,0001.87,0001.35
2023-10-13 23:53:00,SystemResetWarning,0833.9,5.01,000.00,029.8,028.6,000.0,038.3,031.4,10.0,0000.0,0005.85,0001.82,0001.35
2023-10-13 23:54:00,SystemResetWarning,0833.9,5.01,000.00,029.8,028.6,000.0,038.3,031.4,10.0,0000.0,0005.35,0001.82,0001.34
2023-10-13 23:55:00,SystemResetWarning,0833.9,5.00,000.00,029.9,028.6,000.0,038.3,031.4,10.1,0000.0,0005.77,0001.88,0001.35
2023-10-13 23:56:00,SystemResetWarning,0833.9,4.99,000.00,029.9,028.6,000.0,038.3,031.4,10.1,0000.0,0005.72,0001.84,0001.33
2023-10-13 23:57:00,SystemResetWarning,0833.9,5.00,000.00,029.9,028.6,000.0,038.3,031.4,10.1,0000.0,0005.76,0001.84,0001.32
2023-10-13 23:58:00,SystemResetWarning,0834.0,5.01,000.00,029.9,028.6,000.0,038.3,031.4,10.2,0000.0,0004.40,0001.84,0001.31
2023-10-13 23:59:00,SystemResetWarning,0833.9,5.01,000.00,029.9,028.6,000.0,038.3,031.4,10.2,0000.0,0004.03,0001.82,0001.31
